DAL44 KBOS-MMUN

Flight info

Callsign DAL44
Flight time N/A
Altitude 40000
Route SSOXS7 SSOXS Q167 RIFLE DCT HEADI Q97 KALDA Q131 WAALT Y289 BAHAA DCT SAXXN Y262 LULLS Y196 CANOA UB879 NOSAT NOSAT1D
Aircraft A339/H-SADE1E2E3GHIJ3J5M1P2RWXY/LB2D1

Departure

Time 2026-05-05 00:30
Airport Boston Logan International Airport (KBOS)

Arrival

Time N/A
Airport Cancún International Airport (MMUN)
Time Latitude Longitude Altitude Speed Heading
2026-05-05 00:05 42.37101 -71.01937 31 ft 0 kts 212°
2026-05-05 00:20 42.37115 -71.01926 30 ft 4 kts 216°
2026-05-05 00:20 42.37136 -71.01904 29 ft 4 kts 216°
2026-05-05 00:21 42.37157 -71.01884 29 ft 4 kts 190°
2026-05-05 00:21 42.37177 -71.01879 30 ft 4 kts 161°
2026-05-05 00:21 42.37194 -71.01891 30 ft 4 kts 118°
2026-05-05 00:21 42.37203 -71.01916 30 ft 0 kts 122°
2026-05-05 00:25 42.37191 -71.01890 31 ft 7 kts 123°
2026-05-05 00:25 42.37148 -71.01803 31 ft 15 kts 124°
2026-05-05 00:25 42.37144 -71.01656 31 ft 19 kts 84°
2026-05-05 00:25 42.37058 -71.01506 31 ft 23 kts 136°
2026-05-05 00:26 42.36935 -71.01343 31 ft 23 kts 136°
2026-05-05 00:26 42.36895 -71.01234 31 ft 11 kts 84°
2026-05-05 00:26 42.36955 -71.01150 31 ft 15 kts 41°
2026-05-05 00:26 42.37061 -71.01063 31 ft 20 kts 25°
2026-05-05 00:27 42.37193 -71.00980 31 ft 21 kts 27°
2026-05-05 00:27 42.37246 -71.00943 31 ft 4 kts 26°
2026-05-05 00:27 42.37288 -71.00915 31 ft 11 kts 26°
2026-05-05 00:27 42.37392 -71.00865 31 ft 21 kts 18°
2026-05-05 00:28 42.37541 -71.00794 31 ft 24 kts 19°
2026-05-05 00:28 42.37695 -71.00718 31 ft 17 kts 21°
2026-05-05 00:28 42.37734 -71.00698 31 ft 4 kts 20°
2026-05-05 00:28 42.37772 -71.00679 31 ft 9 kts 20°
2026-05-05 00:29 42.37834 -71.00626 29 ft 13 kts 58°
2026-05-05 00:29 42.37835 -71.00583 31 ft 0 kts 101°
2026-05-05 00:29 42.37826 -71.00548 31 ft 8 kts 109°
2026-05-05 00:29 42.37776 -71.00487 31 ft 12 kts 175°
2026-05-05 00:30 42.37695 -71.00524 31 ft 17 kts 199°
2026-05-05 00:30 42.37325 -71.00694 34 ft 98 kts 201°
2026-05-05 00:30 42.36463 -71.01113 181 ft 151 kts 198°
2026-05-05 00:30 42.35417 -71.01610 785 ft 170 kts 200°
2026-05-05 00:31 42.34197 -71.01822 1469 ft 189 kts 176°
2026-05-05 00:31 42.32954 -71.00958 2065 ft 221 kts 148°
2026-05-05 00:31 42.31940 -70.99322 2487 ft 236 kts 131°
2026-05-05 00:31 42.31144 -70.97379 2572 ft 237 kts 115°
2026-05-05 00:32 42.30981 -70.95140 2714 ft 247 kts 85°
2026-05-05 00:32 42.31386 -70.92831 2908 ft 262 kts 77°
2026-05-05 00:32 42.31855 -70.90335 3248 ft 283 kts 78°
2026-05-05 00:32 42.32291 -70.87707 3820 ft 290 kts 79°
2026-05-05 00:33 42.32691 -70.84996 4454 ft 295 kts 79°
2026-05-05 00:33 42.33073 -70.82296 5182 ft 296 kts 80°
2026-05-05 00:33 42.33080 -70.79529 5919 ft 296 kts 102°
2026-05-05 00:33 42.32351 -70.76931 6569 ft 297 kts 119°
2026-05-05 00:34 42.31417 -70.74422 7241 ft 300 kts 118°
2026-05-05 00:34 42.30507 -70.71876 7976 ft 302 kts 117°
2026-05-05 00:34 42.29511 -70.69376 8631 ft 303 kts 129°
2026-05-05 00:34 42.27946 -70.67504 9344 ft 301 kts 154°
2026-05-05 00:35 42.26011 -70.66456 9972 ft 301 kts 167°
2026-05-05 00:35 42.23969 -70.65675 10422 ft 312 kts 168°
2026-05-05 00:35 42.21809 -70.64857 10612 ft 332 kts 167°
2026-05-05 00:35 42.19545 -70.63920 10880 ft 347 kts 166°
2026-05-05 00:36 42.17220 -70.63028 11532 ft 346 kts 173°
2026-05-05 00:36 42.14841 -70.62708 12214 ft 343 kts 182°
2026-05-05 00:36 42.12462 -70.62815 12865 ft 342 kts 189°
2026-05-05 00:36 42.10109 -70.63257 13539 ft 341 kts 195°
2026-05-05 00:37 42.07805 -70.64009 14106 ft 341 kts 200°
2026-05-05 00:37 42.06308 -70.64675 14446 ft 343 kts 203°
2026-05-05 00:37 42.04038 -70.65724 14947 ft 347 kts 202°
2026-05-05 00:37 42.01737 -70.66751 15476 ft 350 kts 202°
2026-05-05 00:38 41.98642 -70.68107 16166 ft 355 kts 202°
2026-05-05 00:38 41.96277 -70.69138 16597 ft 361 kts 202°
2026-05-05 00:38 41.94657 -70.69845 16943 ft 363 kts 202°
2026-05-05 00:38 41.92245 -70.70898 17474 ft 366 kts 202°
2026-05-05 00:39 41.89815 -70.71960 17985 ft 369 kts 202°
2026-05-05 00:39 41.87362 -70.73032 18457 ft 373 kts 202°
2026-05-05 00:39 41.84904 -70.74158 18904 ft 374 kts 205°
2026-05-05 00:39 41.82539 -70.75520 19355 ft 375 kts 210°
2026-05-05 00:40 41.80220 -70.77133 19807 ft 376 kts 214°
2026-05-05 00:40 41.77946 -70.78895 20207 ft 380 kts 214°
2026-05-05 00:40 41.75643 -70.80665 20700 ft 383 kts 214°
2026-05-05 00:40 41.73312 -70.82433 21156 ft 386 kts 214°
2026-05-05 00:41 41.70958 -70.84204 21625 ft 390 kts 214°
2026-05-05 00:41 41.68582 -70.85984 22090 ft 393 kts 214°
2026-05-05 00:41 41.66186 -70.87776 22566 ft 396 kts 214°
2026-05-05 00:41 41.63769 -70.89579 23064 ft 399 kts 214°
2026-05-05 00:42 41.61338 -70.91394 23505 ft 402 kts 214°
2026-05-05 00:42 41.58883 -70.93227 23892 ft 406 kts 214°
2026-05-05 00:42 41.56462 -70.95174 24273 ft 405 kts 220°
2026-05-05 00:42 41.54320 -70.97595 24683 ft 402 kts 230°
2026-05-05 00:43 41.52528 -71.00440 25063 ft 399 kts 239°
2026-05-05 00:43 41.51013 -71.03545 25459 ft 401 kts 242°
2026-05-05 00:43 41.49479 -71.06676 25859 ft 404 kts 241°
2026-05-05 00:43 41.47919 -71.09808 26252 ft 407 kts 241°
2026-05-05 00:44 41.46339 -71.12960 26635 ft 410 kts 241°
2026-05-05 00:44 41.44747 -71.16127 27008 ft 413 kts 241°
2026-05-05 00:44 41.43144 -71.19315 27339 ft 416 kts 241°
2026-05-05 00:44 41.41545 -71.22493 27718 ft 419 kts 241°
2026-05-05 00:45 41.39918 -71.25721 28096 ft 421 kts 241°
2026-05-05 00:45 41.38278 -71.28972 28458 ft 424 kts 241°
2026-05-05 00:45 41.36628 -71.32239 28811 ft 427 kts 241°
2026-05-05 00:45 41.34965 -71.35530 29152 ft 429 kts 241°
2026-05-05 00:46 41.33294 -71.38838 29490 ft 432 kts 241°
2026-05-05 00:46 41.31610 -71.42168 29841 ft 434 kts 242°
2026-05-05 00:46 41.29919 -71.45511 30164 ft 437 kts 242°
2026-05-05 00:46 41.28214 -71.48876 30456 ft 440 kts 242°
2026-05-05 00:47 41.26494 -71.52266 30749 ft 443 kts 241°
2026-05-05 00:47 41.24764 -71.55676 31054 ft 446 kts 241°
2026-05-05 00:47 41.23027 -71.59092 31395 ft 447 kts 241°
2026-05-05 00:47 41.21305 -71.62476 31664 ft 450 kts 241°
2026-05-05 00:48 41.19545 -71.65931 31963 ft 453 kts 241°
2026-05-05 00:48 41.17771 -71.69408 32232 ft 455 kts 241°
2026-05-05 00:48 41.15991 -71.72893 32490 ft 458 kts 241°
2026-05-05 00:48 41.14199 -71.76401 32711 ft 460 kts 241°
2026-05-05 00:49 41.12399 -71.79933 32903 ft 462 kts 241°
2026-05-05 00:49 41.10599 -71.83475 33102 ft 464 kts 241°
2026-05-05 00:49 41.08791 -71.87031 33271 ft 465 kts 241°
2026-05-05 00:49 41.06978 -71.90591 33433 ft 467 kts 241°
2026-05-05 00:50 41.05159 -71.94157 33627 ft 467 kts 241°
2026-05-05 00:50 41.03412 -71.97769 33830 ft 464 kts 246°